Home   Weather   Hockenheim   Past weeks

Flag for Germany Past Weather in Hockenheim, Baden-Württemberg, Germany — Yesterday and Last 2 Weeks

Now
16 °F

Clear.


Feels Like: 16 °F
Forecast: 15 / 29 °F
Wind: No wind

Location: Ramstein

Current Time: Jan 19, 2017 at 3:41:33 am

Latest Report: Jan 19, 2017 at 2:58 am


Visibility: N/A

Pressure: 30.59 "Hg

Humidity: 87%

Dew Point: 13 °F

Location of HockenheimLocation

Past Weather in Hockenheim — Graph

°F

Hockenheim Temperature Yesterday

Maximum temperature yesterday: 30 °F (at 1:58 pm)
Minimum temperature yesterday: 19 °F (at 10:58 pm)
Average temperature yesterday: 25 °F

High & Low Weather Summary for the Past Weeks

 TemperatureHumidityPressure
High43 °F (Jan 12, 11:37 pm)100% (Jan 4, 1:58 am)30.80 "Hg (Jan 4, 1:58 am)
Low5 °F (Jan 7, 2:58 am)53% (Jan 6, 2:58 pm)29.22 "Hg (Jan 13, 12:00 am)
Average30 °F89%30.15 "Hg
* Reported Jan 4 1:58 am — Jan 19 1:58 am, Hockenheim, Weather by CustomWeather, © 2017

Note: Actual official high and low records may vary slightly from our data, if they occured in-between our weather recording intervals... More about our weather records

Advertising

Hockenheim Weather History for the Previous 24 Hours

Scroll right to see more
 ConditionsComfort  
Time TempWeatherWind HumidityBarometerVisibility
1:58 am
Thu, Jan 19
18 °FClear.9 mph86%30.60 "HgN/A
12:58 am17 °FClear.5 mph87%30.61 "HgN/A
11:58 pm
Wed, Jan 18
19 °FClear.No wind79%30.62 "HgN/A
11:03 pm19 °FClear.No wind79%30.54 "HgN/A
10:58 pm19 °FClear.No wind79%30.61 "HgN/A
9:58 pm21 °FClear.6 mph80%30.62 "HgN/A
8:58 pm21 °FClear.6 mph80%30.62 "HgN/A
7:58 pm23 °FClear.5 mph77%30.62 "HgN/A
6:58 pm24 °FClear.8 mph77%30.62 "HgN/A
5:58 pm27 °FClear.9 mph69%30.62 "HgN/A
4:58 pm28 °FSunny.13 mph64%30.61 "HgN/A
3:58 pm30 °FSunny.15 mph59%30.61 "HgN/A
2:58 pm30 °FSunny.14 mph59%30.60 "HgN/A
1:58 pm30 °FSunny.15 mph59%30.60 "HgN/A
12:58 pm29 °FSunny.15 mph61%30.61 "HgN/A
11:58 am28 °FScattered clouds.14 mph64%30.63 "HgN/A
11:37 am27 °FPartly sunny.17 mph69%30.57 "HgN/A
10:58 am27 °FScattered clouds.13 mph67%30.64 "HgN/A
10:14 am25 °FOvercast.13 mph74%30.57 "HgN/A
9:58 am25 °FPartly sunny.8 mph74%30.64 "HgN/A
8:58 am24 °FPartly sunny.13 mph76%30.64 "HgN/A
7:58 am23 °FOvercast.9 mph78%30.63 "HgN/A
6:58 am24 °FPassing clouds.13 mph78%30.60 "HgN/A
6:28 am23 °FPassing clouds.10 mph80%30.54 "HgN/A
5:58 am24 °FPassing clouds.12 mph78%30.60 "HgN/A
4:58 am25 °FOvercast.12 mph74%30.60 "HgN/A
3:58 am25 °FOvercast.12 mph74%30.60 "HgN/A
Weather by CustomWeather, © 2017

See weather overviewHow to use our weather pages